Wolf Creek, OR

3:43 PM PST on February 09, 2016 (GMT -0800)
Sexton Summit

Weather History for KSXT - April, 2013

Change the Weather History Date:

Sunday, April 21, 2013

  Actual Average Record
Temperature  
Mean Temperature 48 °F -  
Max Temperature 59 °F 51 °F 75 °F (2009)
Min Temperature 37 °F 34 °F 24 °F (2008)
Degree Days  
Heating Degree Days 17    
Moisture  
Dew Point 37 °F    
Average Humidity 83    
Maximum Humidity 100    
Minimum Humidity 49    
Precipitation  
Precipitation 0.00 in - - ()
Sea Level Pressure  
Sea Level Pressure 30.22 in    
Wind  
Wind Speed 7 mph (NNE)    
Max Wind Speed 13 mph    
Max Gust Speed -    
Visibility 6 miles    
Events Fog    
Averages and records for this station are not official NWS values.
T = Trace of Precipitation, MM = Missing Value Source: NWS Daily Summary

Daily Weather History Graph

Daily Weather History Graph

Search for Another Location

Airport or City:

Trip Planner

Search our weather history database for the weather conditions in past years. The results will help you decide how hot, cold, wet, or windy it might be!

Date:

Astronomy

Apr. 21, 2013 Rise Set
Actual Time 6:22 AM PDT 8:02 PM PDT
Civil Twilight 5:52 AM PDT 8:32 PM PDT
Nautical Twilight 5:16 AM PDT 9:09 PM PDT
Astronomical Twilight 4:37 AM PDT 9:48 PM PDT
Moon 3:48 PM PDT (4/21) 3:53 AM PDT (4/21)
Length of Visible Light 14h 40m
Length of Day
13h 40m
Waxing Gibbous, 81% of the Moon is Illuminated
Apr 21
Waxing Gibbous
Apr 25
Full
May 2
Last Quarter
May 9
New
May 17
First Quarter

Hourly Weather History & Observations

Time (PDT) Temp. Windchill Dew Point Humidity Pressure Visibility Wind Dir Wind Speed Gust Speed Precip Events Conditions
12:30 AM 39.2 °F 33.0 °F 37.4 °F 93% 30.23 in 10.0 mi North 9.2 mph - N/A   Partly Cloudy
12:41 AM 39.2 °F 33.6 °F 37.4 °F 93% 30.23 in 1.8 mi NNW 8.1 mph - N/A   Mostly Cloudy
12:53 AM 39.2 °F 34.2 °F 37.4 °F 93% 30.24 in 3.0 mi North 6.9 mph - N/A   Mostly Cloudy
12:56 AM 39.0 °F 34.8 °F 37.0 °F 93% 30.23 in 4.0 mi North 5.8 mph - N/A   Mostly Cloudy
1:08 AM 39.2 °F 34.2 °F 37.4 °F 93% 30.23 in 1.8 mi North 6.9 mph - N/A   Overcast
1:16 AM 37.4 °F 32.1 °F 37.4 °F 100% 30.23 in 0.8 mi North 6.9 mph - N/A   Mist
1:45 AM 37.4 °F 33.8 °F 37.4 °F 100% 30.23 in 0.2 mi North 4.6 mph - N/A Fog Fog
1:56 AM 37.9 °F 33.5 °F 37.0 °F 97% 30.21 in 0.2 mi North 5.8 mph - N/A Fog Fog
2:56 AM 37.9 °F 31.5 °F 37.0 °F 97% 30.20 in 0.2 mi North 9.2 mph - N/A Fog Fog
3:28 AM 37.4 °F 29.8 °F 35.6 °F 93% 30.22 in 2.0 mi North 11.5 mph - N/A   Mostly Cloudy
3:32 AM 37.4 °F 30.3 °F 35.6 °F 93% 30.22 in 10.0 mi NNE 10.4 mph - N/A   Scattered Clouds
3:56 AM 37.9 °F 30.0 °F 35.1 °F 89% 30.20 in 10.0 mi NNE 12.7 mph - N/A   Clear
4:11 AM 37.4 °F 30.8 °F 35.6 °F 93% 30.21 in 1.2 mi North 9.2 mph - N/A   Partly Cloudy
4:13 AM 37.4 °F 29.3 °F 35.6 °F 93% 30.21 in 0.8 mi North 12.7 mph - N/A   Mist
4:21 AM 37.4 °F 30.3 °F 35.6 °F 93% 30.21 in 2.0 mi North 10.4 mph - N/A   Partly Cloudy
4:25 AM 37.4 °F 31.4 °F 35.6 °F 93% 30.21 in 0.8 mi North 8.1 mph - N/A   Mist
4:33 AM 37.4 °F 31.4 °F 35.6 °F 93% 30.21 in 0.2 mi North 8.1 mph - N/A Fog Fog
4:56 AM 37.0 °F 29.8 °F 36.0 °F 96% 30.20 in 0.2 mi NNE 10.4 mph - N/A Fog Fog
5:05 AM 37.4 °F 30.3 °F 33.8 °F 87% 30.21 in 1.0 mi ENE 10.4 mph - N/A   Mist
5:07 AM 37.4 °F 32.1 °F 33.8 °F 87% 30.21 in 4.0 mi ENE 6.9 mph - N/A   Mostly Cloudy
5:15 AM 37.4 °F 32.8 °F 35.6 °F 93% 30.21 in 10.0 mi East 5.8 mph - N/A   Scattered Clouds
5:56 AM 37.9 °F 34.4 °F 34.0 °F 86% 30.22 in 10.0 mi East 4.6 mph - N/A   Clear
6:56 AM 41.0 °F - 34.0 °F 76% 30.22 in 10.0 mi Calm Calm - N/A   Clear
7:56 AM 43.0 °F - 37.0 °F 80% 30.24 in 10.0 mi Calm Calm - N/A   Clear
8:56 AM 45.0 °F - 39.0 °F 80% 30.24 in 10.0 mi Calm Calm - N/A   Clear
9:56 AM 48.0 °F - 39.0 °F 71% 30.24 in 10.0 mi Variable 4.6 mph - N/A   Clear
10:56 AM 48.9 °F - 39.0 °F 69% 30.26 in 10.0 mi Calm Calm - N/A   Clear
11:56 AM 52.0 °F - 37.0 °F 57% 30.25 in 10.0 mi Calm Calm - N/A   Clear
12:56 PM 54.0 °F - 37.0 °F 53% 30.24 in 10.0 mi Variable 3.5 mph - N/A   Clear
1:56 PM 55.9 °F - 37.9 °F 51% 30.23 in 10.0 mi Variable 5.8 mph - N/A   Clear
2:56 PM 59.0 °F - 39.9 °F 49% 30.21 in 10.0 mi Variable 4.6 mph - N/A   Partly Cloudy
3:56 PM 57.0 °F - 39.9 °F 53% 30.21 in 10.0 mi Variable 3.5 mph - N/A   Mostly Cloudy
4:56 PM 55.9 °F - 41.0 °F 57% 30.21 in 10.0 mi Variable 4.6 mph - N/A   Scattered Clouds
5:56 PM 52.0 °F - 39.9 °F 63% 30.22 in 10.0 mi Calm Calm - N/A   Scattered Clouds
6:56 PM 50.0 °F - 41.0 °F 71% 30.21 in 10.0 mi Variable 4.6 mph - N/A   Partly Cloudy
7:56 PM 46.0 °F 41.9 °F 41.0 °F 83% 30.20 in 10.0 mi North 8.1 mph - N/A   Clear
8:56 PM 45.0 °F 41.2 °F 41.0 °F 86% 30.21 in 10.0 mi North 6.9 mph - N/A   Clear
9:56 PM 45.0 °F 40.1 °F 41.0 °F 86% 30.20 in 10.0 mi NNE 9.2 mph - N/A   Clear
10:56 PM 44.1 °F 39.0 °F 41.0 °F 89% 30.20 in 10.0 mi NNE 9.2 mph - N/A   Clear
11:56 PM 44.1 °F 38.6 °F 41.0 °F 89% 30.19 in 10.0 mi North 10.4 mph - N/A   Clear